This is the latest recevied weather packets stored in our database for station/object SQ7RAF-15. If no packets are shown the sender has not sent any weather packets the latest 10 day(s).
| Time | Temp. | Humidity | Pressure | Rain* | Wind** | Luminosity | Snow |
|---|---|---|---|---|---|---|---|
| 1778262936 | 10° C | 88% | 1018.8 hPa | 0 mm | - | 1 W/m² | - |
| 1778262648 | 10° C | 88% | 1018.9 hPa | 0 mm | - | 1 W/m² | - |
| 1778262329 | 10° C | 88% | 1018.8 hPa | 0 mm | - | 1 W/m² | - |
| 1778262039 | 10° C | 88% | 1018.9 hPa | 0 mm | - | 2 W/m² | - |
| 1778261719 | 10° C | 88% | 1018.9 hPa | 0 mm | - | 3 W/m² | - |
| 1778261431 | 10° C | 88% | 1018.8 hPa | 0 mm | - | 3 W/m² | - |
| 1778261143 | 10° C | 87% | 1018.8 hPa | 0 mm | - | 3 W/m² | - |
| 1778260823 | 10.56° C | 87% | 1018.7 hPa | 0 mm | - | 2 W/m² | - |
| 1778260536 | 10.56° C | 87% | 1018.8 hPa | 0 mm | - | 3 W/m² | - |
| 1778260248 | 10.56° C | 87% | 1018.8 hPa | 0 mm | - | 2 W/m² | - |
| 1778259928 | 10.56° C | 87% | 1018.7 hPa | 0 mm | - | 6 W/m² | - |
| 1778259640 | 10.56° C | 86% | 1018.8 hPa | 0 mm | - | 8 W/m² | - |
| 1778259319 | 10.56° C | 86% | 1018.7 hPa | 0 mm | - | 10 W/m² | - |
| 1778259032 | 10.56° C | 85% | 1018.7 hPa | 0 mm | - | 14 W/m² | - |
| 1778258743 | 10.56° C | 85% | 1018.8 hPa | 0 mm | - | 18 W/m² | - |
| 1778258424 | 11.11° C | 86% | 1018.8 hPa | 0 mm | - | 24 W/m² | - |
| 1778258135 | 11.11° C | 85% | 1018.8 hPa | 0 mm | - | 27 W/m² | - |
| 1778257848 | 11.11° C | 85% | 1018.7 hPa | 0 mm | - | 28 W/m² | - |
| 1778257528 | 11.11° C | 84% | 1018.7 hPa | 0 mm | - | 29 W/m² | - |
| 1778257240 | 11.11° C | 84% | 1018.7 hPa | 0 mm | - | 32 W/m² | - |
| 1778256920 | 11.11° C | 84% | 1018.5 hPa | 0 mm | - | 35 W/m² | - |
| 1778256631 | 11.11° C | 84% | 1018.5 hPa | 0 mm | - | 38 W/m² | - |
| 1778256343 | 11.11° C | 84% | 1018.5 hPa | 0 mm | - | 41 W/m² | - |
| 1778256023 | 11.11° C | 84% | 1018.5 hPa | 0 mm | - | 41 W/m² | - |
| 1778255736 | 11.11° C | 84% | 1018.5 hPa | 0 mm | - | 40 W/m² | - |
* Rain latest hour (hover to see other rain measurements)
** Current wind speed in m/s (hover to see current wind gust speed)